TimeEST,TemperatureF,Dew PointF,Humidity,Sea Level PressureIn,VisibilityMPH,Wind Direction,Wind SpeedMPH,Gust SpeedMPH,PrecipitationIn,Events,Conditions,WindDirDegrees,DateUTC
12:54 AM,28.0,24.1,85,30.06,10.0,SW,4.6,-,N/A,,Overcast,220,2013-02-03 05:54:00
1:54 AM,28.0,24.1,85,30.04,10.0,SW,4.6,-,N/A,,Overcast,230,2013-02-03 06:54:00
2:05 AM,28.4,24.8,86,30.01,10.0,WSW,4.6,-,N/A,,Overcast,240,2013-02-03 07:05:00
2:34 AM,28.4,24.8,86,30.00,10.0,WSW,9.2,-,N/A,,Overcast,240,2013-02-03 07:34:00
2:54 AM,28.9,24.1,82,30.02,10.0,WSW,9.2,-,N/A,,Overcast,250,2013-02-03 07:54:00
3:54 AM,28.9,23.0,78,30.00,10.0,West,9.2,-,N/A,,Overcast,260,2013-02-03 08:54:00
4:54 AM,28.0,21.9,78,29.99,10.0,West,8.1,-,N/A,,Overcast,270,2013-02-03 09:54:00
5:54 AM,27.0,21.9,81,29.98,10.0,WSW,6.9,-,N/A,,Overcast,250,2013-02-03 10:54:00
6:54 AM,27.0,23.0,85,29.98,10.0,West,4.6,-,N/A,,Overcast,260,2013-02-03 11:54:00
7:27 AM,26.6,23.0,86,29.95,8.0,West,6.9,-,0.00,Snow,Light Snow,280,2013-02-03 12:27:00
7:40 AM,26.6,23.0,86,29.96,9.0,West,8.1,-,N/A,,Overcast,270,2013-02-03 12:40:00
7:51 AM,26.6,23.0,86,29.96,10.0,West,8.1,-,0.00,,Overcast,280,2013-02-03 12:51:00
7:54 AM,27.0,23.0,85,29.99,10.0,West,5.8,-,0.00,,Overcast,270,2013-02-03 12:54:00
8:15 AM,26.6,23.0,86,29.96,4.0,West,9.2,-,0.00,Snow,Light Snow,280,2013-02-03 13:15:00
8:54 AM,27.0,23.0,85,30.00,4.0,West,6.9,-,0.00,Snow,Light Snow,280,2013-02-03 13:54:00
9:54 AM,26.1,21.9,84,30.01,8.0,WNW,5.8,-,0.00,,Overcast,300,2013-02-03 14:54:00
10:54 AM,26.1,21.9,84,30.02,6.0,WNW,5.8,-,0.00,,Overcast,290,2013-02-03 15:54:00
11:54 AM,27.0,21.9,81,30.02,8.0,West,8.1,-,N/A,,Overcast,270,2013-02-03 16:54:00
12:54 PM,28.0,23.0,81,30.03,8.0,WNW,8.1,-,N/A,,Overcast,290,2013-02-03 17:54:00
1:54 PM,28.0,23.0,81,30.04,10.0,WNW,15.0,23.0,N/A,,Overcast,290,2013-02-03 18:54:00
2:54 PM,28.0,23.0,81,30.06,9.0,WNW,16.1,-,N/A,,Overcast,290,2013-02-03 19:54:00
3:37 PM,28.4,24.8,86,30.04,5.0,West,12.7,-,0.00,Snow,Light Snow,280,2013-02-03 20:37:00
3:47 PM,28.4,24.8,86,30.05,2.5,West,11.5,-,N/A,Snow,Light Snow,280,2013-02-03 20:47:00
3:54 PM,28.0,24.1,85,30.08,2.0,West,12.7,-,0.00,Snow,Light Snow,270,2013-02-03 20:54:00
4:52 PM,28.4,21.2,74,30.07,9.0,West,11.5,21.9,0.00,,Overcast,280,2013-02-03 21:52:00
4:54 PM,28.0,21.0,75,30.10,10.0,West,15.0,21.9,0.00,,Overcast,280,2013-02-03 21:54:00
5:07 PM,28.4,21.2,74,30.08,8.0,WNW,15.0,21.9,0.00,Snow,Light Snow,290,2013-02-03 22:07:00
5:54 PM,27.0,21.0,78,30.12,9.0,West,5.8,-,0.00,,Overcast,280,2013-02-03 22:54:00
6:05 PM,26.6,21.2,80,30.09,9.0,West,5.8,-,N/A,,Overcast,280,2013-02-03 23:05:00
6:54 PM,27.0,21.0,78,30.14,10.0,West,5.8,-,N/A,,Overcast,270,2013-02-03 23:54:00
7:54 PM,27.0,21.0,78,30.16,10.0,West,9.2,-,N/A,,Overcast,280,2013-02-04 00:54:00
8:54 PM,27.0,21.0,78,30.17,10.0,West,8.1,-,N/A,,Overcast,270,2013-02-04 01:54:00
9:54 PM,26.1,18.0,71,30.18,10.0,WNW,5.8,-,N/A,,Overcast,300,2013-02-04 02:54:00
10:16 PM,24.8,17.6,74,30.14,10.0,WNW,4.6,-,N/A,,Mostly Cloudy,290,2013-02-04 03:16:00
10:31 PM,24.8,17.6,74,30.14,10.0,WNW,3.5,-,N/A,,Partly Cloudy,290,2013-02-04 03:31:00
10:54 PM,23.0,17.1,78,30.17,10.0,Calm,Calm,-,N/A,,Clear,0,2013-02-04 03:54:00
11:54 PM,21.0,18.0,88,30.17,10.0,SW,3.5,-,N/A,,Clear,230,2013-02-04 04:54:00